Location: Palomar Mountain Lodge
(33.3110°N, 116.8495°W)
Time: 15:35:40
(UTC-07:00)

Cosmos 1626 - Pass Details

Date: 12 July 2018
Orbit: 493 x 499 km, 82.5° (Epoch: 18 July)

Event Time Altitude Azimuth Distance (km) Brightness Sun altitude
Rises 20:38:20 0° 203° (SSW) 2,564 5.6 -8.0°
Reaches altitude 10° 20:40:34 10° 213° (SSW) 1,685 4.8 -8.4°
Maximum altitude 20:43:57 34° 280° (W) 823 3.9 -9.0°
Drops below altitude 10° 20:47:22 10° 347° (NNW) 1,693 5.6 -9.6°
Sets 20:49:37 0° 356° (N) 2,578 6.3 -10.0°
